CAPE
3351 3390 3340 2880 2811 2896 2769 2340 2039 1796 1756 1506 1298 1232 1345 1265 1429 1507 1301 1107 738 492 583 578 511 417 315 511 762 794 568 529 334 394 530 608 506 443 445 576 751 728
3132 3023 2983 2794 2895 3007 2813 2311 1946 1524 1640 1574 1300 1412 1415 1478 1368 1267 1167 894 810 528 541 379 352 286 193 91 435 442 629 608 598 604 860 892 782 638 469 562 637 896
2884 2958 2796 2706 2981 3086 2704 2226 1735 1255 1372 1313 1310 1322 1312 1294 1328 1283 1185 793 680 376 457 353 229 258 172 163 419 448 351 725 646 336 901 876 540 446 532 120 296 545
2916 2639 2487 2720 3066 2996 2473 2090 1435 1104 1130 1247 1174 1022 1035 1102 1284 1275 1186 890 624 587 375 281 128 119 334 386 696 490 340 515 230 338 511 496 646 706 516 498 397 464
2619 2426 2516 2724 3003 2766 2326 1924 1343 868 843 1004 1070 1030 1071 1115 1172 1082 1158 983 858 644 559 553 593 480 672 494 739 546 523 307 396 864 683 337 506 680 439 539 634 569
2380 2403 2460 2681 2776 2476 2254 1819 1380 987 780 846 980 934 990 1082 1065 1007 1056 882 637 378 312 337 486 445 514 593 739 634 440 285 218 953 846 577 179 374 423 627 681 799
2254 2234 2293 2381 2445 2269 2072 1763 1516 1267 742 761 972 890 931 1026 1077 1122 1166 965 579 526 446 495 757 514 757 864 944 928 1050 826 744 1060 881 646 596 418 708 1138 1176 1147
2106 2063 2091 2190 2263 2137 1972 1849 1546 1364 702 782 733 856 936 898 1155 1058 1081 976 754 904 934 783 908 1001 706 966 1034 1004 926 938 862 1149 1128 834 690 786 734 1118 1446 1426
1880 1850 1898 2065 2114 2037 1962 1900 1632 1475 618 566 471 481 661 715 882 794 998 989 817 915 1102 1023 1112 1033 1055 1144 1044 1004 730 510 507 756 856 682 577 722 697 1109 1470 1328
1895 1768 1674 1996 2141 1976 2004 1992 1850 1496 482 532 502 372 398 548 674 803 889 939 845 946 1041 1014 1148 1194 1278 1164 1188 1059 899 742 872 1189 1076 884 783 698 514 963 834 849
1756 1546 1559 1878 1830 1754 1859 2022 1925 1668 864 231 350 337 418 487 542 705 792 821 758 891 1026 1162 1197 1316 1298 1082 1040 1068 1116 945 1076 1288 1211 1136 1007 1024 1024 920 936 850
1552 1407 1285 1456 1511 1526 1764 1986 1912 1777 1072 136 236 256 295 261 422 380 521 726 745 938 1166 1312 1407 1355 1257 1150 870 986 1250 1102 1097 1230 1170 1177 1128 1161 1171 1118 992 979
1568 1250 1038 920 931 1084 1404 1675 1740 1854 1512 60 67 52 40 62 205 400 428 585 903 1074 1121 1256 1233 1146 1096 1135 1121 1352 1408 1200 1080 1130 1099 1095 1210 1112 999 1108 1086 1076
1581 1366 1180 791 678 722 1212 1542 1751 1628 1537 646 73 27 20 42 78 210 313 412 758 819 944 942 1005 1020 1072 1136 1277 1351 1314 1302 1181 1090 1047 1102 1207 1198 1113 952 1031 1063
1890 1722 1458 1090 679 754 967 1192 1522 1729 1623 494 146 68 10 8 3 30 156 370 524 566 667 742 782 883 979 1034 1102 1302 1410 1292 1232 1166 1106 1090 1209 1148 1148 1100 1086 1101
2175 2004 1799 1518 1201 194 336 592 1124 1710 1848 1053 219 39 4 0 0 0 94 237 396 474 537 609 630 724 565 222 324 1099 1498 1393 1227 1144 1116 1103 1208 1204 1109 1108 1083 1030
2312 2210 2029 1897 1756 1332 693 334 362 1426 1372 1086 202 16 1 10 112 77 44 61 102 231 350 412 518 528 237 223 309 302 598 1188 1166 1185 1128 1184 1123 1158 1117 1022 1273 1214
2352 2279 2212 2061 1889 1815 950 813 653 604 614 1134 655 143 44 50 47 58 54 83 147 262 264 236 286 241 176 334 374 293 131 560 1012 1022 1079 1067 1079 1114 1230 1114 1063 778
2369 2321 2363 2329 2327 1708 785 602 622 554 489 511 758 206 230 79 110 62 56 94 142 188 161 163 216 214 348 446 340 194 0 57 562 1042 1069 1140 1165 1249 1211 916 272 398
2404 2393 2366 2293 2245 2234 1813 1442 1135 951 763 708 595 342 255 248 220 175 129 118 136 134 144 164 214 235 438 500 290 133 126 125 351 770 948 1061 1202 1214 1054 564 396 333
2445 2383 2345 2272 2202 2121 2067 1756 1436 846 872 791 464 246 227 276 28 45 89 84 81 68 87 180 306 217 421 647 638 282 174 190 300 690 970 1170 1163 1017 685 516 338 252
2359 2314 2250 2214 2152 2056 1983 1914 1311 1266 893 787 301 44 316 266 57 56 59 130 85 166 242 259 293 339 469 676 742 497 283 277 508 926 1082 1016 885 702 411 306 203 222
2176 2124 2084 2012 1950 1884 1778 1655 1524 942 701 644 608 533 529 325 234 87 39 208 348 388 348 296 297 308 378 528 661 618 470 429 685 802 821 745 618 522 329 250 163 196
2035 1952 1908 1817 1736 1644 1491 1400 1319 1209 1103 660 506 317 314 248 44 26 360 348 414 490 384 366 496 538 493 568 589 633 580 611 805 832 865 751 570 358 232 190 134 95
1853 1782 1697 1604 1487 1326 1183 995 853 768 696 554 333 284 144 6 8 7 167 333 376 402 458 439 475 429 422 501 562 584 494 418 540 604 605 666 350 328 188 161 239 50
1601 1528 1427 1330 1227 1104 1077 957 812 740 547 34 0 0 311 582 500 470 429 554 436 413 468 588 591 502 444 518 538 500 457 430 456 278 476 726 660 367 310 198 122 72
Wind_Speed
20 20 21 21 21 22 23 23 23 24 24 25 27 27 27 27 28 28 28 27 26 25 24 24 24 23 22 21 21 20 21 21 22 22 21 22 22 22 23 25 27 28
20 21 21 21 21 22 22 24 25 24 24 25 26 27 26 27 28 29 30 29 27 25 25 25 25 25 25 nan 23 22 22 23 23 23 22 22 22 22 22 23 25 27
21 22 24 23 23 24 25 24 25 24 24 25 26 26 26 27 28 29 30 30 28 26 26 26 27 27 26 26 26 24 24 25 24 24 24 24 24 23 23 24 25 26
23 25 26 27 26 27 26 27 26 25 25 26 26 26 26 27 27 29 28 29 28 27 27 27 27 28 28 27 27 26 25 25 24 25 24 24 24 24 23 24 24 24
24 25 26 27 28 29 29 29 30 29 28 28 29 29 28 28 28 28 28 28 28 28 29 28 28 28 29 28 29 27 27 26 27 27 25 24 24 24 24 24 23 23
23 25 27 28 29 30 30 30 30 31 33 33 32 32 31 30 28 29 28 29 29 30 31 29 27 27 28 28 29 28 28 28 28 29 27 25 24 24 24 24 22 23
25 26 28 29 30 30 30 29 28 30 33 34 34 33 34 32 30 30 30 30 31 32 32 30 28 26 27 27 28 28 29 28 28 29 27 26 26 24 25 24 23 24
27 28 30 31 32 31 29 30 31 31 34 37 37 37 37 34 34 34 32 31 32 33 33 32 30 27 27 28 27 28 28 29 29 29 28 27 26 25 24 23 24 25
29 31 32 33 33 31 32 33 33 32 34 36 38 41 39 36 39 38 34 32 32 32 33 33 33 31 29 30 29 27 27 28 28 28 28 27 26 25 22 22 23 24
33 34 36 36 33 33 35 36 34 33 34 35 38 42 43 42 44 41 36 34 33 33 33 32 34 34 33 32 29 28 28 28 28 29 29 28 26 23 21 22 22 23
36 40 43 38 36 37 40 40 38 36 35 33 36 40 43 45 46 43 40 39 37 36 34 33 34 35 34 32 30 28 28 27 28 29 29 28 26 24 22 21 22 25
41 45 45 42 41 42 44 44 42 42 41 36 36 39 42 45 47 45 45 45 42 39 36 35 35 35 35 32 29 28 28 26 27 27 27 27 25 24 24 24 26 28
46 46 45 42 41 39 40 43 44 44 45 nan nan nan nan nan 45 46 47 48 45 44 42 40 37 37 35 33 29 29 27 26 26 26 26 26 25 25 26 27 28 30
44 44 44 44 42 40 38 39 41 41 41 41 nan nan nan nan nan 47 48 47 44 45 46 43 39 37 35 32 30 28 28 27 27 26 26 26 26 26 26 27 29 30
38 39 40 44 50 50 41 40 43 40 39 41 43 nan nan nan nan nan 48 46 44 47 48 44 39 36 35 32 29 28 29 28 28 28 28 26 25 25 26 28 29 31
40 39 40 45 55 60 50 46 43 40 40 44 48 nan nan nan nan nan nan 48 48 49 50 47 41 37 30 26 28 30 31 32 31 31 29 26 25 25 27 30 31 32
40 41 43 47 54 59 63 54 44 39 43 46 49 nan nan nan 50 nan nan nan 52 51 52 51 46 35 24 27 30 30 32 32 32 31 29 27 25 26 27 29 31 35
42 43 45 49 57 60 62 58 51 46 46 47 49 50 nan nan nan nan nan nan 56 54 49 45 42 32 27 30 33 32 32 32 32 31 29 27 25 25 27 30 34 36
45 45 48 53 61 65 62 55 53 52 49 48 50 49 50 nan 48 nan nan nan 53 50 43 41 38 32 31 31 32 31 nan nan 31 30 27 25 25 25 27 34 37 36
47 49 53 61 66 66 64 59 54 51 50 53 54 51 50 51 50 52 54 51 44 42 39 33 29 28 31 33 32 29 27 31 31 29 25 23 24 26 30 32 37 37
49 52 54 57 61 62 62 62 60 57 56 56 55 55 57 54 nan nan nan nan nan nan nan 27 26 28 32 35 31 27 27 31 31 29 24 22 24 27 29 31 33 33
50 52 54 57 60 60 61 61 61 62 60 57 56 nan 54 49 nan nan nan 35 nan 41 35 27 27 28 32 33 32 28 28 29 29 26 22 22 25 28 29 31 33 34
52 54 56 58 60 60 60 60 62 62 61 58 58 54 47 41 41 nan nan 33 37 35 31 26 27 29 31 34 32 28 29 28 28 23 21 24 27 30 32 33 35 37
54 57 59 60 59 59 58 59 61 60 59 56 53 49 44 44 nan nan 37 36 34 32 32 30 28 30 35 34 30 29 29 29 25 21 22 26 30 33 34 35 36 nan
55 58 60 60 57 54 55 57 58 57 53 49 47 46 47 nan nan nan 37 36 35 35 39 34 29 35 41 35 31 31 30 26 22 23 26 29 34 36 37 37 40 nan
56 59 59 58 59 58 57 59 61 60 54 nan nan nan 46 45 43 40 38 38 38 39 38 30 27 34 34 30 31 30 28 24 26 29 33 36 39 41 41 42 43 nan
Wind_Direction
339 334 327 329 331 330 327 329 327 329 328 329 331 332 330 327 322 318 315 313 315 317 316 317 316 314 310 310 308 306 306 310 311 311 313 315 317 320 321 323 324 325
346 342 325 326 326 327 325 326 326 327 326 325 326 324 323 322 320 317 314 312 313 317 319 319 317 316 313 nan 307 305 304 306 310 306 309 314 314 317 320 324 326 324
347 336 331 332 331 333 334 328 323 323 322 324 323 319 316 316 315 315 312 311 312 317 319 319 318 315 312 309 307 305 304 304 305 305 306 310 309 312 316 320 321 325
339 331 331 335 333 332 328 325 321 316 315 316 320 317 312 311 313 315 313 311 309 311 314 317 318 315 312 310 307 305 305 303 301 302 305 306 307 311 315 316 318 320
332 331 331 329 328 326 322 323 322 318 317 313 311 312 312 313 316 316 310 306 304 307 307 311 314 314 312 310 307 305 305 303 302 300 302 305 306 308 312 313 316 320
328 327 325 323 321 322 320 321 319 316 313 310 312 309 312 315 318 316 308 306 305 306 307 308 311 313 312 309 304 303 304 302 300 300 302 305 306 309 310 312 317 322
328 323 324 319 319 317 315 316 311 303 302 304 305 311 311 313 315 313 306 305 307 306 306 305 306 308 307 306 303 302 301 302 300 301 304 305 306 311 313 313 319 322
326 321 318 313 314 314 314 306 302 305 306 303 307 308 310 308 307 308 304 304 307 304 302 303 304 305 304 304 304 303 301 298 300 303 304 306 306 309 311 312 316 320
322 318 314 311 310 306 308 309 315 314 307 307 306 307 305 300 300 306 304 301 301 300 301 301 302 302 299 299 303 303 301 298 299 302 304 305 306 307 309 312 316 316
321 311 306 301 304 305 311 310 311 311 305 304 307 307 305 299 297 300 303 303 300 298 299 298 297 297 295 294 299 302 300 296 294 297 301 304 304 303 307 313 315 312
318 302 296 306 317 313 313 308 303 302 300 302 302 304 304 301 296 295 300 304 301 299 298 295 292 292 293 292 293 298 300 295 290 291 297 303 303 302 305 310 311 313
305 303 312 324 320 312 309 305 301 298 296 296 301 305 306 306 301 296 297 301 300 297 296 294 288 286 289 289 291 296 297 293 288 288 293 300 304 303 302 303 306 310
307 319 331 334 326 318 312 312 310 305 303 nan nan nan nan nan 305 299 295 297 296 293 291 290 287 283 283 284 286 291 292 291 290 291 293 299 304 306 303 300 301 305
323 333 337 333 321 309 310 315 311 305 307 311 nan nan nan nan nan 302 296 293 292 290 287 284 284 282 280 280 282 285 287 289 293 294 295 300 306 308 307 303 303 304
324 329 328 327 312 300 300 303 302 301 307 310 311 nan nan nan nan nan 298 291 286 287 285 278 279 280 273 274 280 283 285 290 293 295 296 299 306 309 308 306 304 304
324 324 324 325 319 311 300 294 299 303 308 312 313 nan nan nan nan nan nan 290 283 285 284 274 272 271 269 282 286 282 284 286 288 293 295 298 304 307 307 307 307 307
323 326 327 326 317 315 307 301 305 312 316 314 314 nan nan nan 305 nan nan nan 280 281 281 274 268 267 276 289 294 292 285 284 287 293 295 296 302 306 306 305 305 308
325 325 327 326 316 313 310 318 324 322 318 318 316 314 nan nan nan nan nan nan 280 279 279 276 273 273 283 291 293 295 293 284 285 292 293 293 299 304 303 302 301 303
323 323 320 312 312 317 325 326 327 326 322 317 315 307 302 nan 303 nan nan nan 286 291 289 284 283 284 288 291 292 296 nan nan 283 291 290 289 295 299 298 298 299 300
319 317 317 322 325 326 326 327 328 328 323 314 307 303 300 298 299 294 287 289 303 311 301 294 296 296 295 294 292 294 290 282 283 290 289 292 298 298 297 300 303 307
318 319 320 321 322 323 324 325 328 326 315 309 309 308 306 302 nan nan nan nan nan nan nan 312 302 298 298 294 290 286 279 283 290 292 290 295 298 297 299 302 304 307
319 319 319 320 321 322 324 325 325 323 315 312 309 nan 297 296 nan nan nan 314 nan 313 313 312 297 292 291 294 291 282 280 287 295 291 288 294 298 300 304 305 307 310
316 317 319 320 320 322 325 324 323 319 319 315 312 309 308 314 327 nan nan 318 313 314 316 312 297 291 300 298 287 279 284 294 295 288 292 301 303 307 310 311 312 313
311 314 317 319 318 321 324 320 316 317 318 314 311 315 324 333 nan nan 322 315 314 317 322 317 300 291 292 284 278 287 297 297 288 283 292 302 307 309 309 310 312 nan
307 310 314 317 320 313 302 301 303 306 308 310 311 317 323 nan nan nan 320 315 316 322 323 314 291 281 285 284 289 299 303 295 284 283 294 305 308 310 310 312 312 nan
304 308 313 314 306 304 305 306 308 312 316 nan nan nan 313 314 314 315 318 319 318 322 319 305 278 267 272 288 298 303 305 293 287 292 302 306 309 310 310 312 313 nan